This is the latest recevied weather packets stored in our database for station/object KC5L-7. If no packets are shown the sender has not sent any weather packets the latest 10 day(s).
| Time | Temp. | Humidity | Pressure | Rain* | Wind** | Luminosity | Snow |
|---|---|---|---|---|---|---|---|
| 1777912880 | 23.89° C | 64% | 1012.2 hPa | 0 mm | - | - | - |
| 1777912281 | 23.33° C | 65% | 1012.3 hPa | 0 mm | - | - | - |
| 1777911680 | 23.33° C | 67% | 1012.5 hPa | 0 mm | - | - | - |
| 1777911080 | 22.78° C | 67% | 1012.5 hPa | 0 mm | - | - | - |
| 1777910480 | 22.78° C | 68% | 1012.5 hPa | 0 mm | - | - | - |
| 1777909880 | 22.22° C | 70% | 1012.6 hPa | 0 mm | - | - | - |
| 1777909280 | 21.67° C | 72% | 1012.7 hPa | 0 mm | - | - | - |
| 1777908681 | 21.67° C | 73% | 1013 hPa | 0 mm | - | - | - |
| 1777908080 | 21.11° C | 76% | 1013.3 hPa | 0 mm | - | - | - |
| 1777907480 | 20.56° C | 77% | 1013.4 hPa | 0 mm | - | - | - |
| 1777906880 | 20° C | 77% | 1013.5 hPa | 0 mm | - | - | - |
| 1777906280 | 20° C | 76% | 1013.6 hPa | 0 mm | - | - | - |
| 1777905680 | 20° C | 77% | 1013.6 hPa | 0 mm | - | - | - |
| 1777905080 | 19.44° C | 77% | 1013.6 hPa | 0 mm | - | - | - |
| 1777904480 | 19.44° C | 77% | 1013.6 hPa | 0 mm | - | - | - |
| 1777903880 | 19.44° C | 77% | 1013.5 hPa | 0 mm | - | - | - |
| 1777903280 | 18.89° C | 77% | 1013.8 hPa | 0 mm | - | - | - |
| 1777902680 | 18.89° C | 77% | 1013.9 hPa | 0 mm | - | - | - |
| 1777902080 | 18.89° C | 77% | 1013.9 hPa | 0 mm | - | - | - |
| 1777901481 | 18.33° C | 77% | 1013.8 hPa | 0 mm | - | - | - |
| 1777900880 | 18.33° C | 77% | 1013.8 hPa | 0 mm | - | - | - |
| 1777899680 | 17.78° C | 79% | 1013.8 hPa | 0 mm | - | - | - |
| 1777899080 | 17.78° C | 78% | 1013.8 hPa | 0 mm | - | - | - |
| 1777898480 | 17.78° C | 79% | 1013.7 hPa | 0 mm | - | - | - |
| 1777897880 | 17.78° C | 77% | 1013.7 hPa | 0 mm | - | - | - |
* Rain latest hour (hover to see other rain measurements)
** Current wind speed in m/s (hover to see current wind gust speed)